SCP
0 0 0 0 0 0 0 0 0 0 0 0 0 0 0 0 0 0 0 0 0 0 0 0 0 0 0 0 0 0 0 0 0 0 0 0 0 0 0 0 0 0 0 0 0 0 0 0 0 0 1 1 1 1
0 0 0 0 0 0 0 0 0 0 0 0 0 0 0 0 0 0 0 0 0 0 0 0 -0 -0 -0 0 0 0 0 0 0 0 0 0 0 0 0 0 0 0 0 0 0 0 0 0 2 2 1 1 1 1
0 0 0 0 0 0 0 0 0 0 0 0 0 0 0 0 0 0 0 0 0 0 0 0 0 0 0 0 0 0 0 0 0 0 0 0 0 0 0 0 0 0 0 0 1 0 0 0 0 0 1 1 1 0
0 0 0 0 0 0 0 0 0 0 0 0 0 0 0 0 0 0 0 0 0 0 0 0 0 0 0 0 0 0 0 0 0 0 0 0 0 0 0 0 0 0 0 0 0 0 0 0 0 0 0 0 0 1
0 0 0 0 0 0 0 0 0 0 0 0 0 0 0 0 0 0 0 0 0 0 0 0 0 0 0 0 0 0 0 0 0 0 0 0 0 0 0 0 0 0 0 0 0 0 0 1 0 0 0 0 0 0
0 0 0 0 0 0 0 0 0 0 0 0 0 0 0 0 0 0 0 0 0 0 0 0 0 0 0 0 0 0 0 0 0 0 0 0 0 0 0 0 0 0 0 0 0 0 0 0 0 0 0 0 0 0
0 0 0 0 0 0 0 0 0 0 0 0 0 0 0 0 0 0 0 0 0 0 0 0 0 0 0 0 0 0 0 0 0 0 0 0 0 0 0 0 0 0 0 0 0 0 0 0 0 0 0 0 0 0
0 0 0 0 0 0 0 0 0 0 0 0 0 0 0 0 0 0 0 0 0 0 0 0 0 0 0 0 0 0 0 0 0 0 0 0 0 0 0 0 0 0 0 0 0 0 0 0 0 0 0 0 0 0
0 0 0 0 0 0 0 0 0 0 0 0 0 0 0 0 0 0 0 0 0 0 0 0 0 0 0 0 0 0 0 0 0 0 0 0 0 0 0 0 0 0 0 0 0 0 0 0 0 0 0 0 0 0
0 0 0 0 0 0 0 0 0 0 0 0 0 0 0 0 0 0 0 0 0 0 0 0 0 0 0 0 0 0 0 0 0 0 0 0 0 0 0 0 0 -0 0 -0 -0 -0 0 0 0 0 0 0 0 0
0 0 0 0 0 0 0 0 0 0 0 0 0 0 0 0 0 0 0 0 0 0 0 0 0 0 0 0 0 0 0 0 0 0 0 0 0 0 0 -0 0 0 0 0 -0 -0 -0 0 0 0 0 0 0 0
0 0 0 0 0 0 0 0 0 0 0 0 0 0 0 0 0 0 0 0 0 0 0 0 0 0 0 0 0 0 0 0 0 0 0 0 0 0 0 0 0 0 0 0 -0 -0 -0 -0 -0 0 0 0 0 0
0 0 0 0 0 0 0 0 0 0 0 0 0 0 0 0 0 0 0 0 0 0 0 0 0 0 0 0 0 0 0 0 0 0 0 0 0 0 0 0 0 -0 0 0 0 0 -0 0 -0 -0 0 0 0 0
0 0 0 0 0 0 0 0 0 0 0 0 0 0 0 0 0 0 0 0 0 0 0 -0 0 0 0 0 0 0 0 0 0 0 0 0 0 0 0 0 0 0 0 -0 -0 -0 0 0 0 -0 0 0 0 0
0 0 0 0 0 0 0 0 0 0 0 0 0 0 0 0 0 0 0 0 0 0 0 0 0 0 0 0 0 0 0 -0 0 0 -0 0 0 -0 0 0 0 -0 -0 -0 -0 -0 0 -0 0 -0 0 0 0 0
0 0 0 0 0 0 0 0 0 0 0 0 0 0 0 0 0 0 0 0 0 0 0 0 0 0 0 0 0 -0 0 0 0 -0 0 0 -0 0 -0 -0 -0 -0 -0 -0 -0 -0 -0 0 0 0 0 0 0 0
0 0 0 0 0 0 0 0 0 0 0 0 0 0 0 0 0 0 0 0 0 -0 0 0 0 0 0 0 0 0 0 0 0 0 0 0 0 -0 0 -0 0 -0 -0 -0 -0 -0 -0 -0 0 0 0 0 0 0
0 0 0 0 0 0 0 0 0 0 0 0 0 0 0 0 0 0 0 0 0 0 0 0 0 0 0 0 0 0 0 0 0 0 0 0 -0 -0 -0 -0 -0 -0 -0 -0 -0 0 0 0 0 0 0 0 0 0
0 0 -0 -0 0 0 0 0 0 0 0 0 0 0 0 0 0 0 0 0 0 0 0 0 0 0 0 0 0 0 0 -0 -0 0 0 0 -0 0 0 -0 0 -0 -0 -0 -0 0 0 0 0 0 0 0 1 0
-0 -0 -0 0 0 0 0 0 0 0 0 0 0 0 0 0 0 0 0 0 0 0 0 0 0 0 0 0 0 -0 0 0 0 0 0 0 -0 0 0 0 -0 -0 -0 -0 -0 -0 -0 -0 0 0 0 0 1 0
0 0 0 0 0 0 0 0 0 0 0 0 0 0 0 0 -0 -0 0 0 0 -0 0 0 0 0 -0 0 0 0 0 0 0 0 -0 0 -0 0 0 0 0 0 0 -0 -0 -0 0 -0 0 0 0 0 1 0
0 -0 0 0 0 0 0 0 0 0 0 0 0 0 0 0 -0 0 -0 -0 0 0 0 -0 -0 0 -0 -0 0 0 0 -0 -0 0 0 0 0 -0 0 0 0 -0 -0 -0 0 0 0 0 0 0 0 0 0 0
0 0 0 0 0 0 0 0 0 0 0 0 0 0 0 0 -0 0 0 -0 0 -0 0 0 0 -0 0 -0 -0 -0 -0 -0 -0 0 0 0 0 0 0 0 0 0 0 -0 0 -0 0 -0 -0 0 0 0 0 0
0 0 0 0 0 0 0 0 0 0 0 0 0 0 0 0 0 0 0 0 -0 0 0 0 -0 0 0 0 0 0 0 0 0 0 0 -0 -0 -0 -0 -0 -0 0 0 0 -0 0 -0 -0 0 0 0 0 0 0
0 0 0 0 0 0 0 0 0 0 0 0 0 0 0 0 0 0 0 0 0 -0 0 -0 0 0 0 0 0 0 0 0 0 -0 -0 -0 -0 -0 0 0 0 0 0 0 -0 -0 -0 -0 -0 -0 0 0 0 0
0 0 0 0 0 0 0 0 0 0 0 0 0 0 0 0 0 0 0 0 0 0 0 0 0 0 -0 -0 -0 -0 0 0 0 -0 -0 -0 -0 -0 0 0 0 0 0 0 0 -0 -0 -0 -0 -0 -0 -0 -0 -0
0 0 0 0 0 0 0 0 0 0 0 0 0 0 0 0 0 0 0 0 0 0 0 0 0 0 0 0 -0 -0 -0 -0 -0 -0 -0 -0 -0 -0 -0 -0 -0 0 0 0 0 0 0 0 0 0 0 0 0 0
0 0 0 0 0 0 0 0 0 0 0 0 0 0 0 0 0 0 0 0 0 0 0 -0 -0 -0 -0 -0 -0 0 0 0 0 0 0 0 0 0 0 0 0 0 -0 -0 0 0 0 0 0 0 0 -0 0 0
0 0 0 0 0 0 0 0 0 0 0 0 0 0 0 0 0 0 0 -0 0 -0 0 0 0 0 0 0 0 0 0 0 -0 -0 -0 0 0 0 0 0 0 0 0 0 -0 -0 -0 0 0 0 -0 -0 -0 -0
0 0 0 0 0 0 0 0 0 0 0 0 0 0 0 -0 -0 -0 0 -0 -0 0 0 0 0 0 0 0 0 -0 -0 -0 -0 -0 0 -0 0 -0 0 0 -0 -0 -0 -0 -0 0 0 0 0 0 -0 -0 0 -0
0 0 0 0 0 0 0 0 0 0 0 0 0 0 0 0 0 -0 0 0 0 0 0 0 -0 -0 -0 0 -0 -0 -0 -0 -0 -0 -0 -0 -0 -0 -0 -0 0 -0 -0 -0 -0 -0 -0 -0 -0 -0 -0 -0 -0 -0
0 0 0 0 0 0 0 0 0 0 0 0 0 0 -0 0 -0 0 -0 0 -0 -0 -0 0 0 -0 -0 0 -0 -0 -0 -0 0 0 -0 0 -0 0 -0 -0 0 0 -0 0 0 0 0 -0 0 -0 0 0 0 0
0 0 0 0 0 0 0 0 0 0 0 0 0 -0 -0 -0 -0 -0 0 0 0 0 -0 -0 -0 -0 -0 -0 -0 -0 -0 -0 -0 -0 -0 -0 -0 -0 -0 0 0 0 0 0 0 0 -0 0 0 -0 0 0 0 0
Wind_Speed_500mb
35 34 36 36 36 37 35 37 37 36 32 32 35 34 29 22 19 13 10 14 11 17 34 25 18 17 19 15 12 21 17 9 15 16 17 21 20 24 30 34 36 34 22 25 29 41 48 18 29 26 14 9 18 20
39 38 37 35 35 34 36 35 36 35 34 31 31 31 27 20 16 13 8 18 18 19 27 29 33 34 30 25 24 21 23 14 13 13 10 13 19 14 25 22 20 27 33 25 25 3 19 17 18 15 16 11 14 20
41 41 40 38 34 33 35 36 36 35 34 32 29 29 26 20 18 15 13 18 25 28 42 24 19 16 12 18 20 29 22 13 16 16 20 12 18 18 19 19 29 26 29 14 29 30 16 34 7 11 17 20 20 18
44 43 41 38 37 37 37 36 36 37 33 29 28 26 24 21 19 17 9 17 15 18 14 3 8 13 11 16 21 24 33 18 17 24 25 15 16 21 20 25 25 25 5 16 8 58 35 15 9 21 21 21 23 24
46 46 43 42 39 39 37 37 38 35 30 27 27 24 23 20 19 17 13 15 8 7 15 29 36 27 20 17 16 20 26 31 31 27 16 19 34 18 24 23 26 36 33 23 25 23 27 36 40 23 30 24 26 22
45 43 41 37 34 36 38 38 34 32 28 25 23 22 23 18 13 11 9 5 5 4 13 8 6 16 15 15 17 21 23 27 31 30 21 28 32 32 13 24 39 43 41 40 36 54 35 36 46 46 39 36 31 19
44 42 37 32 30 34 35 33 31 28 26 25 20 21 19 16 11 11 6 6 4 8 8 13 10 13 17 17 20 19 16 23 23 29 27 35 36 33 19 29 47 61 61 60 52 61 58 53 50 49 49 45 34 30
42 38 35 33 29 31 30 30 28 27 24 21 20 18 15 19 13 9 12 21 13 8 12 7 10 10 10 17 13 14 17 22 15 26 26 28 26 20 10 33 30 27 37 40 49 57 64 63 59 54 49 50 49 42
41 35 31 32 30 28 29 30 28 27 21 14 14 12 14 8 9 12 15 12 9 11 9 9 9 5 5 16 8 4 7 9 7 13 16 14 16 10 3 20 33 40 36 45 67 59 47 39 40 42 43 47 54 49
40 39 36 39 32 28 32 28 25 23 15 9 0 5 10 11 17 10 5 8 13 14 16 19 27 9 9 3 2 7 5 5 7 4 9 10 18 28 8 31 53 58 58 63 59 56 56 40 34 36 41 46 47 49
36 36 36 32 26 28 28 25 22 16 12 6 8 6 2 10 7 9 9 12 14 10 13 21 22 10 5 12 3 7 2 6 6 3 6 5 5 8 34 70 70 80 73 61 58 62 59 56 45 39 39 37 37 42
34 34 28 24 24 28 27 26 24 23 17 12 9 9 5 11 12 9 8 9 11 8 16 17 11 12 3 3 4 2 3 4 9 4 5 7 4 13 47 62 70 68 65 59 52 61 70 66 59 52 47 39 42 41
33 29 26 27 29 28 26 26 26 22 12 4 5 5 7 9 3 12 11 7 7 12 18 19 12 5 6 5 4 5 7 9 12 2 6 12 28 53 64 65 76 68 67 48 48 49 53 66 60 57 49 41 42 44
32 30 32 32 31 29 26 25 24 22 10 9 9 6 10 10 12 11 9 5 4 4 5 14 8 8 8 7 7 8 6 7 6 7 9 13 42 59 68 74 70 69 63 48 36 34 39 57 63 52 47 43 39 46
29 31 33 34 31 30 27 27 26 23 6 8 9 9 15 24 14 16 7 12 12 13 14 17 6 11 5 4 7 6 7 9 6 7 19 37 53 64 70 68 59 66 52 32 22 16 20 35 49 45 41 37 41 40
36 36 39 36 34 32 30 29 25 9 8 10 13 14 26 17 18 18 18 9 13 17 15 12 4 7 8 7 11 12 5 3 7 15 33 42 57 60 65 53 58 51 47 23 12 12 15 27 33 31 33 35 35 39
45 36 40 35 35 34 30 21 13 11 12 10 16 29 33 22 18 9 11 14 18 17 6 9 9 7 9 7 7 5 4 10 20 21 25 38 44 58 52 46 50 51 40 33 11 12 16 21 26 27 20 28 36 38
42 31 39 38 41 39 31 13 7 11 15 24 24 25 25 24 20 18 17 21 19 16 22 6 12 8 7 4 3 7 17 24 26 20 24 32 32 42 46 46 53 65 38 23 15 1 5 3 6 10 18 30 32 40
31 29 38 41 44 19 13 12 10 10 19 19 22 29 25 24 23 24 20 24 20 19 18 11 9 7 4 11 20 20 20 21 29 30 26 24 35 34 39 42 51 65 48 30 13 8 9 9 5 4 9 12 24 28
23 30 39 45 31 10 9 9 12 13 10 9 17 22 23 23 20 26 34 30 27 29 13 8 15 4 26 15 19 24 27 29 32 31 28 25 32 27 31 30 42 61 64 57 44 32 28 20 17 8 5 12 16 15
44 47 48 37 9 6 5 3 8 12 16 15 14 15 20 22 31 32 36 40 36 31 26 36 40 28 32 26 29 34 35 29 24 25 26 20 26 20 27 28 26 39 50 62 62 57 54 43 26 21 29 27 15 22
47 44 27 19 6 6 8 11 9 12 9 17 21 23 12 14 19 19 24 26 22 34 38 29 24 25 28 30 32 29 29 25 23 23 17 8 8 22 27 24 21 23 30 38 46 55 59 55 52 44 29 33 40 49
45 25 12 12 9 8 9 9 9 9 7 9 11 7 7 5 9 15 9 18 25 14 10 13 16 22 27 31 28 25 21 19 17 7 9 6 7 11 16 23 26 25 12 18 25 32 36 41 44 42 47 42 42 46
24 14 9 11 14 6 8 10 11 8 10 9 6 6 3 5 8 7 6 3 5 8 13 12 12 18 19 17 10 5 3 3 6 7 9 11 12 24 21 22 24 22 19 17 16 19 20 25 26 32 34 37 47 41
7 9 7 8 10 9 9 6 8 6 4 6 6 4 8 10 6 5 6 6 8 12 11 9 9 10 10 11 8 14 17 17 17 15 16 18 21 24 28 27 31 32 28 24 20 21 26 31 34 32 33 33 32 35
6 14 17 17 10 8 3 4 4 2 1 5 6 9 6 3 4 7 3 12 12 8 4 6 10 15 17 19 25 26 29 27 29 34 33 32 32 33 33 34 37 38 34 28 30 34 35 37 38 39 38 37 35 33
6 9 13 12 6 1 5 3 6 3 2 4 5 5 5 7 5 5 6 11 18 17 14 16 15 18 23 23 28 30 31 30 32 34 33 34 34 32 33 38 41 39 37 39 38 38 40 40 40 39 40 39 37 36
6 5 8 11 8 3 5 5 2 4 6 10 7 7 3 8 7 5 7 13 14 19 20 19 16 21 29 29 32 34 34 33 31 31 32 34 34 34 36 39 40 40 40 38 36 37 38 39 40 40 41 42 41 38
7 11 13 2 5 2 3 7 7 10 6 5 5 3 6 5 12 14 14 20 19 19 27 29 30 31 32 32 29 26 25 26 26 29 30 27 29 25 23 23 23 27 29 30 32 33 33 33 33 33 33 33 32 30
5 13 4 5 2 5 8 12 9 5 4 4 5 6 4 24 21 22 22 21 16 22 24 28 28 26 24 21 19 23 22 18 22 18 18 23 20 19 17 17 18 20 20 22 23 24 26 25 25 24 27 29 29 29
4 2 4 2 6 9 7 7 9 7 4 6 10 11 15 28 20 15 19 24 22 22 22 22 21 20 21 18 18 17 20 17 14 13 14 12 16 15 12 9 9 11 13 11 12 12 15 15 18 18 21 25 23 18
4 4 1 4 5 5 6 7 5 5 10 8 13 19 21 25 28 18 15 14 18 16 13 11 13 15 15 10 14 15 18 6 7 8 4 10 11 8 7 6 8 7 5 6 5 7 8 15 14 20 22 16 13 12
1 4 6 7 7 6 8 3 6 7 8 4 1 49 25 3 21 20 11 11 7 10 13 6 13 13 10 11 14 9 5 3 2 4 1 3 4 5 3 4 7 4 4 3 2 6 12 19 19 20 17 15 11 11
Wind_Direction_500mb
284 288 292 295 295 294 297 299 304 308 309 321 328 336 341 342 351 18 309 339 351 294 286 284 271 266 274 252 280 358 292 199 273 267 267 271 263 259 263 262 269 265 240 254 246 257 259 326 266 224 46 8 2 358
279 283 287 290 294 296 296 295 300 301 301 310 319 324 331 327 338 356 338 323 312 279 271 288 274 257 256 261 280 283 297 301 322 303 347 319 304 330 316 297 301 256 265 293 287 91 314 336 43 30 14 20 359 339
275 278 282 284 284 289 290 288 292 295 296 302 309 314 322 317 318 327 318 320 324 286 294 246 253 243 224 233 256 261 269 271 267 299 304 285 274 296 282 270 282 317 311 309 312 257 63 8 69 36 10 359 341 333
271 273 274 275 272 275 282 282 285 289 289 290 298 304 316 311 311 319 311 304 320 302 285 129 239 240 262 251 242 245 255 265 271 269 278 282 278 294 289 309 286 280 270 286 292 306 297 261 62 353 339 341 338 330
266 269 271 267 271 275 282 282 283 284 279 282 290 298 307 305 306 310 305 286 267 298 316 306 291 271 244 227 248 255 248 246 254 256 254 273 287 309 284 281 276 266 278 284 284 286 297 294 308 301 312 316 318 326
263 267 269 267 269 272 274 277 276 276 270 273 279 293 300 306 306 344 237 240 247 297 298 287 316 260 223 234 254 252 244 239 245 255 258 272 274 279 277 274 270 278 283 291 293 299 278 266 288 289 288 285 288 292
259 264 257 257 266 270 270 272 273 267 265 267 275 287 293 292 269 260 327 213 262 318 279 285 273 169 224 247 246 234 230 246 259 274 264 271 270 271 264 273 285 283 292 291 267 267 277 272 269 270 270 271 269 271
254 255 255 256 263 266 266 265 261 256 258 267 281 285 294 288 284 270 250 269 250 256 257 271 276 248 193 248 207 231 235 225 241 253 273 275 276 264 259 263 274 338 327 319 319 291 267 267 264 263 262 263 256 252
248 249 260 252 257 262 264 259 249 249 247 257 281 295 299 272 239 221 254 243 225 231 271 241 271 41 232 273 309 285 282 266 237 258 231 244 252 225 341 17 357 335 327 316 318 304 296 274 261 255 256 256 253 243
244 248 252 255 260 257 252 243 242 241 230 228 339 254 222 192 249 249 255 222 208 211 230 254 263 257 285 65 269 305 27 271 289 294 278 237 259 245 58 346 328 314 303 297 293 289 287 267 272 288 273 251 248 251
241 243 252 248 252 244 229 225 223 204 185 153 203 243 296 265 189 221 241 227 194 219 222 236 247 265 325 321 325 17 12 286 266 165 283 269 270 75 335 311 300 302 292 284 269 260 258 264 271 272 272 277 252 242
242 248 231 230 232 221 217 217 202 186 170 202 210 245 239 217 220 237 226 208 215 223 211 212 194 238 75 15 63 222 269 264 261 358 320 263 146 304 315 308 308 305 309 296 279 257 249 246 243 249 257 255 259 242
234 233 227 219 217 210 212 203 187 182 167 223 218 229 234 222 224 228 216 211 210 200 192 197 182 155 140 136 185 226 238 244 298 248 251 271 349 323 318 317 319 318 318 292 279 257 247 232 234 237 248 245 249 236
224 229 213 207 200 202 195 189 176 169 146 214 199 213 225 205 239 215 261 4 13 161 199 231 218 173 155 166 217 244 237 262 248 226 255 353 326 318 320 320 321 319 321 310 278 264 241 226 225 234 241 250 231 224
207 199 193 192 195 189 181 176 171 163 195 219 221 240 224 243 215 269 284 264 238 262 268 261 221 199 139 236 224 219 234 247 235 296 334 336 328 326 329 329 333 331 326 307 289 265 239 204 207 223 236 223 216 220
184 177 190 190 189 176 172 170 166 177 226 230 236 249 244 252 258 256 248 230 259 265 268 261 229 199 209 215 206 222 249 265 335 326 344 346 341 336 335 342 345 342 337 329 280 227 223 200 207 211 209 208 206 209
172 184 185 188 178 165 164 159 153 208 230 221 241 235 261 263 252 269 245 215 259 233 261 259 232 214 189 242 228 221 347 336 337 334 346 346 354 1 3 360 359 354 347 347 280 173 169 176 193 203 196 195 200 192
187 183 182 178 170 161 167 162 191 232 242 243 253 251 248 257 265 256 244 228 256 251 264 264 282 240 254 281 13 316 346 344 332 358 346 347 352 4 4 355 3 5 12 353 357 121 200 121 138 197 187 197 203 188
190 185 177 171 162 146 165 194 207 257 242 256 255 260 257 261 258 250 239 232 242 246 287 289 268 276 308 350 335 329 330 321 326 338 341 348 8 359 0 11 6 0 25 33 50 56 61 101 135 159 177 182 191 173
166 164 155 152 150 152 188 203 212 253 267 263 269 258 255 249 256 236 218 222 228 235 253 248 252 303 298 312 300 302 313 318 318 325 333 352 347 3 16 20 23 24 31 43 67 83 93 93 83 132 180 191 192 174
147 149 153 158 203 238 262 232 245 258 285 271 262 257 262 246 238 224 220 226 221 230 233 249 263 274 280 294 298 299 298 299 304 307 316 352 8 40 31 29 27 33 37 36 39 52 71 80 84 105 115 89 129 153
151 145 154 181 215 226 256 227 243 286 274 265 277 249 256 234 232 244 239 221 235 240 241 255 285 295 285 293 298 292 287 291 292 295 302 307 343 12 15 13 30 32 33 42 38 41 57 58 64 78 113 66 83 122
143 141 157 180 215 223 254 223 231 227 248 292 272 259 244 211 189 221 239 220 219 227 251 271 272 286 287 288 287 283 274 268 280 342 333 339 343 2 15 26 23 1 38 33 52 59 58 56 55 58 71 100 94 85
143 163 190 200 206 247 216 224 225 227 226 226 237 247 282 29 310 257 282 16 165 276 277 270 287 292 295 294 276 323 357 56 70 58 44 41 40 55 37 35 35 35 39 58 52 73 82 85 74 72 81 75 82 83
164 204 202 234 221 238 218 231 208 196 333 290 306 330 10 346 352 333 296 303 325 301 293 278 287 307 319 343 62 87 87 93 87 71 70 70 80 83 62 55 52 51 54 67 71 69 79 93 98 97 96 93 93 93
210 206 191 202 215 213 45 253 164 112 293 324 340 318 345 316 258 254 300 324 312 322 57 65 68 50 67 83 96 99 90 94 96 85 77 76 76 75 70 67 59 55 49 61 75 81 84 85 86 85 85 86 86 86
236 206 193 210 254 192 215 163 10 350 136 242 236 237 221 237 195 69 16 63 71 83 85 79 82 92 94 91 99 94 101 97 90 87 83 78 76 76 75 70 65 66 64 68 71 75 79 81 81 83 82 79 80 81
272 273 212 170 206 267 78 114 263 243 230 227 237 239 288 6 55 104 91 90 74 87 83 82 92 113 111 105 106 106 103 100 97 94 90 85 82 79 77 73 73 73 74 78 79 82 85 87 87 86 84 82 80 80
240 186 204 245 117 64 195 214 236 238 238 223 255 20 53 57 119 86 94 87 102 107 93 92 98 105 110 113 114 111 107 99 84 87 90 101 102 94 85 82 82 72 71 76 90 94 93 93 91 89 86 84 84 84
210 175 147 123 202 239 233 211 255 261 218 254 4 46 56 94 96 103 118 126 125 113 108 107 113 117 119 116 111 114 111 95 106 105 104 95 83 73 71 74 91 93 94 88 92 95 98 91 87 88 84 87 90 94
187 182 102 149 256 250 253 248 252 250 239 163 131 141 130 117 113 114 110 122 119 118 117 116 107 104 105 101 99 118 115 111 102 80 81 97 97 80 86 91 98 87 95 122 124 100 102 97 91 85 81 85 88 93
33 48 51 279 273 228 229 217 191 168 167 151 180 183 156 167 119 117 139 140 121 124 123 146 133 128 125 125 124 122 148 136 133 127 78 42 61 64 48 72 95 97 111 88 110 144 140 140 136 124 117 101 81 73
314 250 252 257 235 203 194 199 173 179 163 170 122 109 136 137 104 110 153 122 143 154 129 114 136 140 113 88 95 95 92 32 226 157 166 262 247 197 66 78 92 96 130 135 122 138 138 128 119 111 106 92 77 66
Wind_Speed_850mb
35 34 36 36 36 37 35 37 37 36 32 32 35 34 29 22 19 13 10 14 11 17 34 25 18 17 19 15 12 21 17 9 15 16 17 21 20 24 30 34 36 34 22 25 29 41 48 18 29 26 14 9 18 20
39 38 37 35 35 34 36 35 36 35 34 31 31 31 27 20 16 13 8 18 18 19 27 29 33 34 30 25 24 21 23 14 13 13 10 13 19 14 25 22 20 27 33 25 25 3 19 17 18 15 16 11 14 20
41 41 40 38 34 33 35 36 36 35 34 32 29 29 26 20 18 15 13 18 25 28 42 24 19 16 12 18 20 29 22 13 16 16 20 12 18 18 19 19 29 26 29 14 29 30 16 34 7 11 17 20 20 18
44 43 41 38 37 37 37 36 36 37 33 29 28 26 24 21 19 17 9 17 15 18 14 3 8 13 11 16 21 24 33 18 17 24 25 15 16 21 20 25 25 25 5 16 8 58 35 15 9 21 21 21 23 24
46 46 43 42 39 39 37 37 38 35 30 27 27 24 23 20 19 17 13 15 8 7 15 29 36 27 20 17 16 20 26 31 31 27 16 19 34 18 24 23 26 36 33 23 25 23 27 36 40 23 30 24 26 22
45 43 41 37 34 36 38 38 34 32 28 25 23 22 23 18 13 11 9 5 5 4 13 8 6 16 15 15 17 21 23 27 31 30 21 28 32 32 13 24 39 43 41 40 36 54 35 36 46 46 39 36 31 19
44 42 37 32 30 34 35 33 31 28 26 25 20 21 19 16 11 11 6 6 4 8 8 13 10 13 17 17 20 19 16 23 23 29 27 35 36 33 19 29 47 61 61 60 52 61 58 53 50 49 49 45 34 30
42 38 35 33 29 31 30 30 28 27 24 21 20 18 15 19 13 9 12 21 13 8 12 7 10 10 10 17 13 14 17 22 15 26 26 28 26 20 10 33 30 27 37 40 49 57 64 63 59 54 49 50 49 42
41 35 31 32 30 28 29 30 28 27 21 14 14 12 14 8 9 12 15 12 9 11 9 9 9 5 5 16 8 4 7 9 7 13 16 14 16 10 3 20 33 40 36 45 67 59 47 39 40 42 43 47 54 49
40 39 36 39 32 28 32 28 25 23 15 9 0 5 10 11 17 10 5 8 13 14 16 19 27 9 9 3 2 7 5 5 7 4 9 10 18 28 8 31 53 58 58 63 59 56 56 40 34 36 41 46 47 49
36 36 36 32 26 28 28 25 22 16 12 6 8 6 2 10 7 9 9 12 14 10 13 21 22 10 5 12 3 7 2 6 6 3 6 5 5 8 34 70 70 80 73 61 58 62 59 56 45 39 39 37 37 42
34 34 28 24 24 28 27 26 24 23 17 12 9 9 5 11 12 9 8 9 11 8 16 17 11 12 3 3 4 2 3 4 9 4 5 7 4 13 47 62 70 68 65 59 52 61 70 66 59 52 47 39 42 41
33 29 26 27 29 28 26 26 26 22 12 4 5 5 7 9 3 12 11 7 7 12 18 19 12 5 6 5 4 5 7 9 12 2 6 12 28 53 64 65 76 68 67 48 48 49 53 66 60 57 49 41 42 44
32 30 32 32 31 29 26 25 24 22 10 9 9 6 10 10 12 11 9 5 4 4 5 14 8 8 8 7 7 8 6 7 6 7 9 13 42 59 68 74 70 69 63 48 36 34 39 57 63 52 47 43 39 46
29 31 33 34 31 30 27 27 26 23 6 8 9 9 15 24 14 16 7 12 12 13 14 17 6 11 5 4 7 6 7 9 6 7 19 37 53 64 70 68 59 66 52 32 22 16 20 35 49 45 41 37 41 40
36 36 39 36 34 32 30 29 25 9 8 10 13 14 26 17 18 18 18 9 13 17 15 12 4 7 8 7 11 12 5 3 7 15 33 42 57 60 65 53 58 51 47 23 12 12 15 27 33 31 33 35 35 39
45 36 40 35 35 34 30 21 13 11 12 10 16 29 33 22 18 9 11 14 18 17 6 9 9 7 9 7 7 5 4 10 20 21 25 38 44 58 52 46 50 51 40 33 11 12 16 21 26 27 20 28 36 38
42 31 39 38 41 39 31 13 7 11 15 24 24 25 25 24 20 18 17 21 19 16 22 6 12 8 7 4 3 7 17 24 26 20 24 32 32 42 46 46 53 65 38 23 15 1 5 3 6 10 18 30 32 40
31 29 38 41 44 19 13 12 10 10 19 19 22 29 25 24 23 24 20 24 20 19 18 11 9 7 4 11 20 20 20 21 29 30 26 24 35 34 39 42 51 65 48 30 13 8 9 9 5 4 9 12 24 28
23 30 39 45 31 10 9 9 12 13 10 9 17 22 23 23 20 26 34 30 27 29 13 8 15 4 26 15 19 24 27 29 32 31 28 25 32 27 31 30 42 61 64 57 44 32 28 20 17 8 5 12 16 15
44 47 48 37 9 6 5 3 8 12 16 15 14 15 20 22 31 32 36 40 36 31 26 36 40 28 32 26 29 34 35 29 24 25 26 20 26 20 27 28 26 39 50 62 62 57 54 43 26 21 29 27 15 22
47 44 27 19 6 6 8 11 9 12 9 17 21 23 12 14 19 19 24 26 22 34 38 29 24 25 28 30 32 29 29 25 23 23 17 8 8 22 27 24 21 23 30 38 46 55 59 55 52 44 29 33 40 49
45 25 12 12 9 8 9 9 9 9 7 9 11 7 7 5 9 15 9 18 25 14 10 13 16 22 27 31 28 25 21 19 17 7 9 6 7 11 16 23 26 25 12 18 25 32 36 41 44 42 47 42 42 46
24 14 9 11 14 6 8 10 11 8 10 9 6 6 3 5 8 7 6 3 5 8 13 12 12 18 19 17 10 5 3 3 6 7 9 11 12 24 21 22 24 22 19 17 16 19 20 25 26 32 34 37 47 41
7 9 7 8 10 9 9 6 8 6 4 6 6 4 8 10 6 5 6 6 8 12 11 9 9 10 10 11 8 14 17 17 17 15 16 18 21 24 28 27 31 32 28 24 20 21 26 31 34 32 33 33 32 35
6 14 17 17 10 8 3 4 4 2 1 5 6 9 6 3 4 7 3 12 12 8 4 6 10 15 17 19 25 26 29 27 29 34 33 32 32 33 33 34 37 38 34 28 30 34 35 37 38 39 38 37 35 33
6 9 13 12 6 1 5 3 6 3 2 4 5 5 5 7 5 5 6 11 18 17 14 16 15 18 23 23 28 30 31 30 32 34 33 34 34 32 33 38 41 39 37 39 38 38 40 40 40 39 40 39 37 36
6 5 8 11 8 3 5 5 2 4 6 10 7 7 3 8 7 5 7 13 14 19 20 19 16 21 29 29 32 34 34 33 31 31 32 34 34 34 36 39 40 40 40 38 36 37 38 39 40 40 41 42 41 38
7 11 13 2 5 2 3 7 7 10 6 5 5 3 6 5 12 14 14 20 19 19 27 29 30 31 32 32 29 26 25 26 26 29 30 27 29 25 23 23 23 27 29 30 32 33 33 33 33 33 33 33 32 30
5 13 4 5 2 5 8 12 9 5 4 4 5 6 4 24 21 22 22 21 16 22 24 28 28 26 24 21 19 23 22 18 22 18 18 23 20 19 17 17 18 20 20 22 23 24 26 25 25 24 27 29 29 29
4 2 4 2 6 9 7 7 9 7 4 6 10 11 15 28 20 15 19 24 22 22 22 22 21 20 21 18 18 17 20 17 14 13 14 12 16 15 12 9 9 11 13 11 12 12 15 15 18 18 21 25 23 18
4 4 1 4 5 5 6 7 5 5 10 8 13 19 21 25 28 18 15 14 18 16 13 11 13 15 15 10 14 15 18 6 7 8 4 10 11 8 7 6 8 7 5 6 5 7 8 15 14 20 22 16 13 12
1 4 6 7 7 6 8 3 6 7 8 4 1 49 25 3 21 20 11 11 7 10 13 6 13 13 10 11 14 9 5 3 2 4 1 3 4 5 3 4 7 4 4 3 2 6 12 19 19 20 17 15 11 11
Wind_Direction_850mb
284 288 292 295 295 294 297 299 304 308 309 321 328 336 341 342 351 18 309 339 351 294 286 284 271 266 274 252 280 358 292 199 273 267 267 271 263 259 263 262 269 265 240 254 246 257 259 326 266 224 46 8 2 358
279 283 287 290 294 296 296 295 300 301 301 310 319 324 331 327 338 356 338 323 312 279 271 288 274 257 256 261 280 283 297 301 322 303 347 319 304 330 316 297 301 256 265 293 287 91 314 336 43 30 14 20 359 339
275 278 282 284 284 289 290 288 292 295 296 302 309 314 322 317 318 327 318 320 324 286 294 246 253 243 224 233 256 261 269 271 267 299 304 285 274 296 282 270 282 317 311 309 312 257 63 8 69 36 10 359 341 333
271 273 274 275 272 275 282 282 285 289 289 290 298 304 316 311 311 319 311 304 320 302 285 129 239 240 262 251 242 245 255 265 271 269 278 282 278 294 289 309 286 280 270 286 292 306 297 261 62 353 339 341 338 330
266 269 271 267 271 275 282 282 283 284 279 282 290 298 307 305 306 310 305 286 267 298 316 306 291 271 244 227 248 255 248 246 254 256 254 273 287 309 284 281 276 266 278 284 284 286 297 294 308 301 312 316 318 326
263 267 269 267 269 272 274 277 276 276 270 273 279 293 300 306 306 344 237 240 247 297 298 287 316 260 223 234 254 252 244 239 245 255 258 272 274 279 277 274 270 278 283 291 293 299 278 266 288 289 288 285 288 292
259 264 257 257 266 270 270 272 273 267 265 267 275 287 293 292 269 260 327 213 262 318 279 285 273 169 224 247 246 234 230 246 259 274 264 271 270 271 264 273 285 283 292 291 267 267 277 272 269 270 270 271 269 271
254 255 255 256 263 266 266 265 261 256 258 267 281 285 294 288 284 270 250 269 250 256 257 271 276 248 193 248 207 231 235 225 241 253 273 275 276 264 259 263 274 338 327 319 319 291 267 267 264 263 262 263 256 252
248 249 260 252 257 262 264 259 249 249 247 257 281 295 299 272 239 221 254 243 225 231 271 241 271 41 232 273 309 285 282 266 237 258 231 244 252 225 341 17 357 335 327 316 318 304 296 274 261 255 256 256 253 243
244 248 252 255 260 257 252 243 242 241 230 228 339 254 222 192 249 249 255 222 208 211 230 254 263 257 285 65 269 305 27 271 289 294 278 237 259 245 58 346 328 314 303 297 293 289 287 267 272 288 273 251 248 251
241 243 252 248 252 244 229 225 223 204 185 153 203 243 296 265 189 221 241 227 194 219 222 236 247 265 325 321 325 17 12 286 266 165 283 269 270 75 335 311 300 302 292 284 269 260 258 264 271 272 272 277 252 242
242 248 231 230 232 221 217 217 202 186 170 202 210 245 239 217 220 237 226 208 215 223 211 212 194 238 75 15 63 222 269 264 261 358 320 263 146 304 315 308 308 305 309 296 279 257 249 246 243 249 257 255 259 242
234 233 227 219 217 210 212 203 187 182 167 223 218 229 234 222 224 228 216 211 210 200 192 197 182 155 140 136 185 226 238 244 298 248 251 271 349 323 318 317 319 318 318 292 279 257 247 232 234 237 248 245 249 236
224 229 213 207 200 202 195 189 176 169 146 214 199 213 225 205 239 215 261 4 13 161 199 231 218 173 155 166 217 244 237 262 248 226 255 353 326 318 320 320 321 319 321 310 278 264 241 226 225 234 241 250 231 224
207 199 193 192 195 189 181 176 171 163 195 219 221 240 224 243 215 269 284 264 238 262 268 261 221 199 139 236 224 219 234 247 235 296 334 336 328 326 329 329 333 331 326 307 289 265 239 204 207 223 236 223 216 220
184 177 190 190 189 176 172 170 166 177 226 230 236 249 244 252 258 256 248 230 259 265 268 261 229 199 209 215 206 222 249 265 335 326 344 346 341 336 335 342 345 342 337 329 280 227 223 200 207 211 209 208 206 209
172 184 185 188 178 165 164 159 153 208 230 221 241 235 261 263 252 269 245 215 259 233 261 259 232 214 189 242 228 221 347 336 337 334 346 346 354 1 3 360 359 354 347 347 280 173 169 176 193 203 196 195 200 192
187 183 182 178 170 161 167 162 191 232 242 243 253 251 248 257 265 256 244 228 256 251 264 264 282 240 254 281 13 316 346 344 332 358 346 347 352 4 4 355 3 5 12 353 357 121 200 121 138 197 187 197 203 188
190 185 177 171 162 146 165 194 207 257 242 256 255 260 257 261 258 250 239 232 242 246 287 289 268 276 308 350 335 329 330 321 326 338 341 348 8 359 0 11 6 0 25 33 50 56 61 101 135 159 177 182 191 173
166 164 155 152 150 152 188 203 212 253 267 263 269 258 255 249 256 236 218 222 228 235 253 248 252 303 298 312 300 302 313 318 318 325 333 352 347 3 16 20 23 24 31 43 67 83 93 93 83 132 180 191 192 174
147 149 153 158 203 238 262 232 245 258 285 271 262 257 262 246 238 224 220 226 221 230 233 249 263 274 280 294 298 299 298 299 304 307 316 352 8 40 31 29 27 33 37 36 39 52 71 80 84 105 115 89 129 153
151 145 154 181 215 226 256 227 243 286 274 265 277 249 256 234 232 244 239 221 235 240 241 255 285 295 285 293 298 292 287 291 292 295 302 307 343 12 15 13 30 32 33 42 38 41 57 58 64 78 113 66 83 122
143 141 157 180 215 223 254 223 231 227 248 292 272 259 244 211 189 221 239 220 219 227 251 271 272 286 287 288 287 283 274 268 280 342 333 339 343 2 15 26 23 1 38 33 52 59 58 56 55 58 71 100 94 85
143 163 190 200 206 247 216 224 225 227 226 226 237 247 282 29 310 257 282 16 165 276 277 270 287 292 295 294 276 323 357 56 70 58 44 41 40 55 37 35 35 35 39 58 52 73 82 85 74 72 81 75 82 83
164 204 202 234 221 238 218 231 208 196 333 290 306 330 10 346 352 333 296 303 325 301 293 278 287 307 319 343 62 87 87 93 87 71 70 70 80 83 62 55 52 51 54 67 71 69 79 93 98 97 96 93 93 93
210 206 191 202 215 213 45 253 164 112 293 324 340 318 345 316 258 254 300 324 312 322 57 65 68 50 67 83 96 99 90 94 96 85 77 76 76 75 70 67 59 55 49 61 75 81 84 85 86 85 85 86 86 86
236 206 193 210 254 192 215 163 10 350 136 242 236 237 221 237 195 69 16 63 71 83 85 79 82 92 94 91 99 94 101 97 90 87 83 78 76 76 75 70 65 66 64 68 71 75 79 81 81 83 82 79 80 81
272 273 212 170 206 267 78 114 263 243 230 227 237 239 288 6 55 104 91 90 74 87 83 82 92 113 111 105 106 106 103 100 97 94 90 85 82 79 77 73 73 73 74 78 79 82 85 87 87 86 84 82 80 80
240 186 204 245 117 64 195 214 236 238 238 223 255 20 53 57 119 86 94 87 102 107 93 92 98 105 110 113 114 111 107 99 84 87 90 101 102 94 85 82 82 72 71 76 90 94 93 93 91 89 86 84 84 84
210 175 147 123 202 239 233 211 255 261 218 254 4 46 56 94 96 103 118 126 125 113 108 107 113 117 119 116 111 114 111 95 106 105 104 95 83 73 71 74 91 93 94 88 92 95 98 91 87 88 84 87 90 94
187 182 102 149 256 250 253 248 252 250 239 163 131 141 130 117 113 114 110 122 119 118 117 116 107 104 105 101 99 118 115 111 102 80 81 97 97 80 86 91 98 87 95 122 124 100 102 97 91 85 81 85 88 93
33 48 51 279 273 228 229 217 191 168 167 151 180 183 156 167 119 117 139 140 121 124 123 146 133 128 125 125 124 122 148 136 133 127 78 42 61 64 48 72 95 97 111 88 110 144 140 140 136 124 117 101 81 73
314 250 252 257 235 203 194 199 173 179 163 170 122 109 136 137 104 110 153 122 143 154 129 114 136 140 113 88 95 95 92 32 226 157 166 262 247 197 66 78 92 96 130 135 122 138 138 128 119 111 106 92 77 66